Location: Unspecified
(44.0704°N, 88.6889°W)
Time: 02:46:30
(UTC+02:00)

Transit 2A - Pass Details

Date: 22 June 2019
Orbit: 594 x 964 km, 66.7° (Epoch: 20 July)

Event Time Altitude Azimuth Distance (km) Brightness Sun altitude
Rises 17:52:48 0° 320° (NW) 3,407 9.0 57.3°
Reaches altitude 10° 17:55:38 10° 310° (NW) 2,404 8.4 57.8°
Maximum altitude 18:00:19 30° 251° (WSW) 1,346 7.4 58.5°
Drops below altitude 10° 18:04:36 10° 192° (SSW) 2,175 8.7 59.1°
Sets 18:07:03 0° 181° (S) 3,030 9.3 59.5°
